Kansas Department of Transportation
RWIS(Road and Runway Information System) Map and Weather Data





Station
Surface
Air
Wind
Site IDSensor TypeLocationTemperature (°F)Temperature (°F)Humidity (%)Speed (mi/h)Gusts (mi/h)DirectionTime
123002AtmosphericBonner Springs 9149912SSWSep 19 2018 3:25PM
123002ApproachBonner Springs120     Sep 19 2018 3:25PM
123002DeckBonner Springs117     Sep 19 2018 3:25PM
123014AtmosphericBull Creek 9138711SSep 19 2018 3:25PM
123014DeckBull Creek118     Sep 19 2018 3:25PM
123014DepartureBull Creek118     Sep 19 2018 3:25PM
123015AtmosphericLeavenworth 9150713SSWSep 19 2018 3:25PM
123015DeckLeavenworthUnavailable     Sep 19 2018 3:25PM
123015DepartureLeavenworth111     Sep 19 2018 3:25PM
123020AtmosphericMayetta 93401115SSep 19 2018 3:25PM
123020RoadwayMayetta122     Sep 19 2018 3:25PM
123020DeckMayetta122     Sep 19 2018 3:25PM
505000AtmosphericKTA 1 9335913SSep 19 2018 3:20PM
505000ApproachKTA 1115     Sep 19 2018 3:20PM
505000DeckKTA 1122     Sep 19 2018 3:20PM
505001AtmosphericKTA 2 9341914SSWSep 19 2018 3:20PM
505001ApproachKTA 2118     Sep 19 2018 3:20PM
505001DeckKTA 2122     Sep 19 2018 3:20PM
505002AtmosphericKTA 3 905127SSWSep 19 2018 3:20PM
505002ApproachKTA 3124     Sep 19 2018 3:20PM
505002DeckKTA 3118     Sep 19 2018 3:20PM
505003AtmosphericKTA 4 9138715NSep 19 2018 3:20PM
505003ApproachKTA 4118     Sep 19 2018 3:20PM
505003DeckKTA 4115     Sep 19 2018 3:20PM
505004AtmosphericKTA 5 91991217SSep 19 2018 3:20PM
505004RoadwayKTA 5Unavailable     Sep 19 2018 3:20PM
505004RoadwayKTA 5Unavailable     Sep 19 2018 3:20PM
505005AtmosphericKTA 6 934000NNESep 19 2018 3:20PM
505005Approach KTA 6Unavailable     Sep 19 2018 3:20PM
505005DeckKTA 6118     Sep 19 2018 3:20PM
505006AtmosphericKTA 7 9348612SSWSep 19 2018 3:20PM
505006ApproachKTA 7Unavailable     Sep 19 2018 3:20PM
505006DeckKTA 7Unavailable     Sep 19 2018 3:20PM
505007AtmosphericKTA 8 9346612SSep 19 2018 3:20PM
505007ApproachKTA 8120     Sep 19 2018 3:20PM
505007DeckKTA 8115     Sep 19 2018 3:20PM
505008AtmosphericKTA 9 9510412SWSep 19 2018 3:20PM
505008ApproachKTA 9122     Sep 19 2018 3:20PM
505008DeckKTA 9115     Sep 19 2018 3:20PM
505009AtmosphericKTA 10 9725210SWSep 19 2018 3:20PM
505009ApproachKTA 10117     Sep 19 2018 3:20PM
505009DeckKTA 10117     Sep 19 2018 3:20PM
505010AtmosphericWebb 93341014ESESep 19 2018 3:25PM
505010DeckWebb115     Sep 19 2018 3:25PM
505010NullWebb      Sep 19 2018 3:25PM
505014AtmosphericI-135 9142814SSWSep 19 2018 3:25PM
505014ApproachI-135115     Sep 19 2018 3:25PM
505014DeckI-135Unavailable     Sep 19 2018 3:25PM
540000AtmosphericBlue Rapids 9142613SSep 19 2018 3:25PM
540000DeckBlue Rapids117     Sep 19 2018 3:25PM
540000DepartureBlue Rapids124     Sep 19 2018 3:25PM
540001AtmosphericSabetha 9146713SSep 19 2018 3:25PM
540001ApproachSabetha124     Sep 19 2018 3:25PM
540001DeckSabetha122     Sep 19 2018 3:25PM
540002AtmosphericWestgate 9535612SSESep 19 2018 3:25PM
540002DeckWestgate120     Sep 19 2018 3:25PM
540002DepartureWestgateUnavailable     Sep 19 2018 3:25PM
540003AtmosphericEmporia 93451014SWSep 19 2018 3:25PM
540003ApproachEmporia122     Sep 19 2018 3:25PM
540003DeckEmporia118     Sep 19 2018 3:25PM
540005AtmosphericLawrence 9148414SSESep 19 2018 3:25PM
540005ApproachLawrenceUnavailable     Sep 19 2018 3:25PM
540005DeckLawrenceUnavailable     Sep 19 2018 3:25PM
540006AtmosphericTroy 9746410SSESep 19 2018 3:25PM
540006DeckTroy      Sep 19 2018 3:25PM
540006DepartureTroy      Sep 19 2018 3:25PM
540007AtmosphericManhattan 9146412SSep 19 2018 3:25PM
540007DepartureManhattan118     Sep 19 2018 3:25PM
540007DeckManhattan126     Sep 19 2018 3:25PM
541000AtmosphericElkhart 91391922SSESep 19 2018 3:25PM
541000ApproachElkhart      Sep 19 2018 3:25PM
541000DeckElkhart      Sep 19 2018 3:25PM
541000DeckElkhart      Sep 19 2018 3:25PM
541001AtmosphericSyracuse 93351322SSWSep 19 2018 3:25PM
541001Out of Service for WinterSyracuse118     Sep 19 2018 3:25PM
541001DeckSyracuse113     Sep 19 2018 3:25PM
541002AtmosphericLiberal 90391119SSep 19 2018 3:25PM
541002ApproachLiberal      Sep 19 2018 3:25PM
541002DeckLiberal      Sep 19 2018 3:25PM
541003AtmosphericFord 91331019SSep 19 2018 3:25PM
541003DeckFord115     Sep 19 2018 3:25PM
541003DepartureFord117     Sep 19 2018 3:25PM
541004AtmosphericScott 951000NSep 19 2018 3:25PM
541004DepartureScott      Sep 19 2018 3:25PM
541005AtmosphericNess 93371419SSWSep 19 2018 3:25PM
541005DeckNess118     Sep 19 2018 3:25PM
541005DepartureNess124     Sep 19 2018 3:25PM
541007AtmosphericGarden City 90441826SSep 19 2018 3:25PM
541007ApproachGarden City102     Sep 19 2018 3:25PM
541007DeckGarden City      Sep 19 2018 3:25PM
543000AtmosphericJunction City 9342612NNESep 19 2018 3:25PM
543000ApproachJunction City117     Sep 19 2018 3:25PM
543000DeckJunction City118     Sep 19 2018 3:25PM
543002AtmosphericMcPherson 93411721SSep 19 2018 3:25PM
543002ApproachMcPherson113     Sep 19 2018 3:25PM
543002DeckMcPherson115     Sep 19 2018 3:25PM
543003AtmosphericSalina 93251418SSep 19 2018 3:25PM
543003DepartureSalina113     Sep 19 2018 3:25PM
543003RoadwaySalina120     Sep 19 2018 3:25PM
543004AtmosphericConcordia 91441421SSep 19 2018 3:25PM
543004ApproachConcordiaUnavailable     Sep 19 2018 3:25PM
543004DeckConcordia113     Sep 19 2018 3:25PM
543005AtmosphericPeabody 9144712NNESep 19 2018 3:25PM
543005ApproachPeabody124     Sep 19 2018 3:25PM
543005DeckPeabodyUnavailable     Sep 19 2018 3:25PM
560000AtmosphericEdson 9322411SSep 19 2018 3:25PM
560000RoadwayEdson122     Sep 19 2018 3:25PM
560000RoadwayEdson118     Sep 19 2018 3:25PM
560001AtmosphericOakley 93371317SSESep 19 2018 3:25PM
560001ApproachOakley      Sep 19 2018 3:25PM
560001DeckOakley      Sep 19 2018 3:25PM
560002AtmosphericAtwood 9336419SWSep 19 2018 3:25PM
560002ApproachAtwood113     Sep 19 2018 3:25PM
560002DeckAtwood120     Sep 19 2018 3:25PM
560003AtmosphericJennings 973349SSWSep 19 2018 3:25PM
560003ApproachJennings129     Sep 19 2018 3:25PM
560003DeckJennings118     Sep 19 2018 3:25PM
560003DeckJennings118     Sep 19 2018 3:25PM
560004AtmosphericWakeeney 91431018SSep 19 2018 3:25PM
560004ApproachWakeeney120     Sep 19 2018 3:25PM
560004DeckWakeeney118     Sep 19 2018 3:25PM
560005AtmosphericWalker 93351220SSWSep 19 2018 3:25PM
560005ApproachWalkerUnavailable     Sep 19 2018 3:25PM
560005DeckWalker115     Sep 19 2018 3:25PM
560006AtmosphericBow Creek(Stockton) 91321217SSWSep 19 2018 3:25PM
560006ApproachBow Creek(Stockton)118     Sep 19 2018 3:25PM
560006DeckBow Creek(Stockton)115     Sep 19 2018 3:25PM
560007AtmosphericLebanon 8244714SSESep 19 2018 3:25PM
560007ApproachLebanon120     Sep 19 2018 3:25PM
560007DeckLebanon117     Sep 19 2018 3:25PM
560008AtmosphericWallace 93261116SSWSep 19 2018 3:25PM
560008ApproachWallace122     Sep 19 2018 3:25PM
560008DeckWallace      Sep 19 2018 3:25PM
572000AtmosphericGreat Bend 93361221SSep 19 2018 3:25PM
572000ApproachGreat Bend122     Sep 19 2018 3:25PM
572000DeckGreat Bend118     Sep 19 2018 3:25PM
572001AtmosphericPratt 931227SSWSep 19 2018 3:25PM
572001ApproachPratt127     Sep 19 2018 3:25PM
572001DeckPratt124     Sep 19 2018 3:25PM
572002AtmosphericAnthony 9342416SSWSep 19 2018 3:25PM
572002ApproachAnthony129     Sep 19 2018 3:25PM
572002DeckAnthony144     Sep 19 2018 3:25PM
573000AtmosphericEureka 9143614SSep 19 2018 3:25PM
573000DeckEurekaUnavailable     Sep 19 2018 3:25PM
573000DepartureEureka117     Sep 19 2018 3:25PM
573001AtmosphericGarnett 905327SESep 19 2018 3:25PM
573001ApproachGarnett122     Sep 19 2018 3:25PM
573001DeckGarnett120     Sep 19 2018 3:25PM
573002AtmosphericCaney 9529710ESESep 19 2018 3:20PM
573002RoadwayCaney129     Sep 19 2018 3:20PM
573003AtmosphericChetopa 935026SESep 19 2018 3:25PM
573003DeckChetopa129     Sep 19 2018 3:25PM
573003DeckChetopa129     Sep 19 2018 3:25PM
573003DepartureChetopa133     Sep 19 2018 3:25PM
573004AtmosphericChanute 9148611SSep 19 2018 3:25PM
573004ApproachChanute122     Sep 19 2018 3:25PM
573004DeckChanute120     Sep 19 2018 3:25PM